| time (UTC) | temp F | wind direction | speed knots | gust knots | rain 1hr in | rain 24hr in | rain mn in | humidity % | barometer mb |
| 20260906180509 | 89 | 165 | 1.7 | 6.1 | 0.00 | 0.00 | 0.00 | 67 | 1014.1 |
| 20260906180010 | 89 | 204 | 1.7 | 7.8 | 0.00 | 0.00 | 0.00 | 69 | 1014.1 |
| 20260906175509 | 88 | 145 | 1.7 | 7.8 | 0.00 | 0.00 | 0.00 | 69 | 1014.2 |
| 20260906175009 | 88 | 194 | 1.7 | 7.8 | 0.00 | 0.00 | 0.00 | 71 | 1014.2 |
| 20260906174509 | 88 | 159 | 0.9 | 8.7 | 0.00 | 0.00 | 0.00 | 70 | 1014.3 |
| 20260906174009 | 87 | 146 | 2.6 | 8.7 | 0.00 | 0.00 | 0.00 | 70 | 1014.6 |
| 20260906173509 | 87 | 188 | 1.7 | 5.2 | 0.00 | 0.00 | 0.00 | 73 | 1014.6 |
| 20260906173009 | 87 | 177 | 2.6 | 5.2 | 0.00 | 0.00 | 0.00 | 75 | 1014.5 |
| 20260906172509 | 86 | 142 | 0.9 | 6.1 | 0.00 | 0.00 | 0.00 | 76 | 1014.6 |
| 20260906172009 | 86 | 105 | 0.9 | 6.1 | 0.00 | 0.00 | 0.00 | 76 | 1014.7 |
| 20260906171510 | 85 | 128 | 2.6 | 5.2 | 0.00 | 0.00 | 0.00 | 78 | 1014.8 |
| 20260906171009 | 85 | 136 | 1.7 | 5.2 | 0.00 | 0.00 | 0.00 | 78 | 1014.8 |
| 20260906170010 | 84 | 130 | 1.7 | 4.3 | 0.00 | 0.00 | 0.00 | 79 | 1015.0 |
| 20260906165510 | 83 | 153 | 0.0 | 2.6 | 0.00 | 0.00 | 0.00 | 79 | 1015.1 |
| 20260906165010 | 83 | 159 | 0.0 | 2.6 | 0.00 | 0.00 | 0.00 | 80 | 1015.2 |
| 20260906164510 | 83 | 177 | 0.0 | 2.6 | 0.00 | 0.00 | 0.00 | 81 | 1015.2 |
| 20260906164009 | 83 | 176 | 0.9 | 4.3 | 0.00 | 0.00 | 0.00 | 80 | 1015.3 |
| 20260906163510 | 82 | 182 | 1.7 | 4.3 | 0.00 | 0.00 | 0.00 | 82 | 1015.4 |
| 20260906163010 | 82 | 150 | 0.9 | 2.6 | 0.00 | 0.00 | 0.00 | 82 | 1015.4 |
| 20260906162510 | 82 | 130 | 0.9 | 2.6 | 0.00 | 0.00 | 0.00 | 82 | 1015.4 |
| 20260906162010 | 82 | 146 | 0.9 | 2.6 | 0.00 | 0.00 | 0.00 | 83 | 1015.4 |
| 20260906161509 | 82 | 144 | 0.0 | 2.6 | 0.00 | 0.00 | 0.00 | 82 | 1015.4 |
| 20260906161010 | 82 | 140 | 0.9 | 2.6 | 0.00 | 0.00 | 0.00 | 82 | 1015.4 |
| 20260906160510 | 82 | 125 | 0.9 | 2.6 | 0.00 | 0.00 | 0.00 | 82 | 1015.4 |
| 20260906160010 | 81 | 125 | 0.9 | 2.6 | 0.00 | 0.00 | 0.00 | 83 | 1015.5 |
| 20260906155510 | 81 | 30 | 0.0 | 1.7 | 0.00 | 0.00 | 0.00 | 82 | 1015.7 |
| 20260906155010 | 81 | 30 | 0.9 | 1.7 | 0.00 | 0.00 | 0.00 | 82 | 1015.9 |
| 20260906154010 | 81 | 151 | 0.0 | 2.6 | 0.00 | 0.00 | 0.00 | 83 | 1015.9 |
| 20260906153510 | 81 | 151 | 0.0 | 2.6 | 0.00 | 0.00 | 0.00 | 83 | 1015.9 |
| 20260906153010 | 81 | 132 | 0.9 | 2.6 | 0.00 | 0.00 | 0.00 | 83 | 1015.9 |
| 20260906152510 | 81 | 156 | 0.0 | 2.6 | 0.00 | 0.00 | 0.00 | 83 | 1015.5 |
| 20260906152010 | 81 | 150 | 0.9 | 4.3 | 0.00 | 0.00 | 0.00 | 83 | 1015.2 |
| 20260906151510 | 81 | 141 | 1.7 | 5.2 | 0.00 | 0.00 | 0.00 | 83 | 1015.1 |
| 20260906151010 | 81 | 127 | 4.3 | 5.2 | 0.00 | 0.00 | 0.00 | 83 | 1015.1 |
| 20260906150510 | 81 | 134 | 0.0 | 5.2 | 0.00 | 0.00 | 0.00 | 83 | 1015.1 |
| 20260906150009 | 81 | 147 | 0.9 | 6.1 | 0.00 | 0.00 | 0.00 | 83 | 1015.1 |
| 20260906145509 | 81 | 122 | 2.6 | 6.1 | 0.00 | 0.00 | 0.00 | 83 | 1015.0 |
| 20260906145009 | 81 | 110 | 2.6 | 6.1 | 0.00 | 0.00 | 0.00 | 84 | 1014.9 |
| 20260906144509 | 81 | 155 | 0.9 | 6.1 | 0.00 | 0.00 | 0.00 | 84 | 1014.8 |
| 20260906143009 | 80 | 142 | 1.7 | 10.4 | 0.00 | 0.00 | 0.00 | 84 | 1015.0 |
| 20260906142509 | 80 | 111 | 1.7 | 7.0 | 0.00 | 0.00 | 0.00 | 84 | 1015.0 |
| 20260906141509 | 80 | 119 | 2.6 | 5.2 | 0.00 | 0.00 | 0.00 | 84 | 1015.3 |
| 20260906140509 | 80 | 153 | 1.7 | 5.2 | 0.00 | 0.00 | 0.00 | 84 | 1015.4 |
| 20260906140010 | 80 | 136 | 2.6 | 6.1 | 0.00 | 0.00 | 0.00 | 85 | 1015.4 |
| 20260906135009 | 80 | 161 | 0.9 | 6.1 | 0.00 | 0.00 | 0.00 | 85 | 1015.3 |
| 20260906134509 | 80 | 134 | 2.6 | 7.8 | 0.00 | 0.00 | 0.00 | 85 | 1015.3 |
| 20260906134009 | 80 | 130 | 1.7 | 7.8 | 0.00 | 0.00 | 0.00 | 85 | 1015.3 |
| 20260906133509 | 80 | 169 | 1.7 | 8.7 | 0.00 | 0.00 | 0.00 | 86 | 1015.3 |
| 20260906133009 | 79 | 150 | 1.7 | 8.7 | 0.00 | 0.00 | 0.00 | 86 | 1015.3 |
| 20260906132509 | 79 | 118 | 1.7 | 10.4 | 0.00 | 0.00 | 0.00 | 86 | 1015.2 |
| 20260906132009 | 79 | 107 | 4.3 | 10.4 | 0.00 | 0.00 | 0.00 | 86 | 1015.3 |
| 20260906131510 | 79 | 154 | 2.6 | 6.1 | 0.00 | 0.00 | 0.00 | 86 | 1015.2 |
| 20260906131009 | 79 | 140 | 1.7 | 5.2 | 0.00 | 0.00 | 0.00 | 86 | 1015.3 |
| 20260906130509 | 79 | 142 | 1.7 | 4.3 | 0.00 | 0.00 | 0.00 | 86 | 1015.3 |
| 20260906130010 | 79 | 138 | 0.0 | 5.2 | 0.00 | 0.00 | 0.00 | 86 | 1015.2 |
| 20260906125509 | 79 | 153 | 1.7 | 5.2 | 0.00 | 0.00 | 0.00 | 87 | 1015.1 |
| 20260906125009 | 78 | 154 | 1.7 | 4.3 | 0.00 | 0.00 | 0.00 | 87 | 1015.0 |
| 20260906124510 | 78 | 149 | 1.7 | 5.2 | 0.00 | 0.00 | 0.00 | 87 | 1014.9 |
| 20260906124010 | 78 | 309 | 0.9 | 5.2 | 0.00 | 0.00 | 0.00 | 87 | 1014.8 |
| 20260906123509 | 78 | 165 | 0.9 | 6.1 | 0.00 | 0.00 | 0.00 | 87 | 1014.8 |
| 20260906123010 | 78 | 188 | 1.7 | 6.1 | 0.00 | 0.00 | 0.00 | 87 | 1014.7 |
| 20260906122509 | 78 | 144 | 0.9 | 4.3 | 0.00 | 0.00 | 0.00 | 87 | 1014.7 |
| 20260906121510 | 78 | 136 | 2.6 | 5.2 | 0.00 | 0.00 | 0.00 | 87 | 1014.6 |
| 20260906121010 | 78 | 144 | 1.7 | 2.6 | 0.00 | 0.00 | 0.00 | 87 | 1014.6 |
| 20260906120509 | 78 | 143 | 1.7 | 2.6 | 0.00 | 0.00 | 0.00 | 87 | 1014.5 |
| 20260906120009 | 78 | 144 | 0.9 | 4.3 | 0.00 | 0.00 | 0.00 | 87 | 1014.3 |
| 20260906114510 | 78 | 151 | 0.9 | 5.2 | 0.00 | 0.00 | 0.00 | 87 | 1014.2 |
| 20260906114010 | 78 | 142 | 1.7 | 5.2 | 0.00 | 0.00 | 0.00 | 87 | 1014.2 |
| 20260906113010 | 78 | 138 | 0.9 | 5.2 | 0.00 | 0.00 | 0.00 | 87 | 1014.0 |
| 20260906112010 | 78 | 132 | 0.9 | 2.6 | 0.00 | 0.00 | 0.00 | 87 | 1014.2 |
| 20260906111510 | 78 | 153 | 0.9 | 2.6 | 0.00 | 0.00 | 0.00 | 87 | 1014.2 |
| 20260906111010 | 78 | 209 | 0.9 | 2.6 | 0.00 | 0.00 | 0.00 | 87 | 1014.2 |
| 20260906110510 | 78 | 148 | 0.9 | 2.6 | 0.00 | 0.00 | 0.00 | 87 | 1014.2 |
| 20260906105509 | 78 | 178 | 0.9 | 2.6 | 0.00 | 0.00 | 0.00 | 87 | 1014.1 |
| 20260906105010 | 78 | 148 | 0.9 | 2.6 | 0.00 | 0.00 | 0.00 | 87 | 1014.0 |
| 20260906104510 | 78 | 189 | 0.0 | 4.3 | 0.00 | 0.00 | 0.00 | 87 | 1013.9 |
| 20260906104010 | 78 | 189 | 0.9 | 4.3 | 0.00 | 0.00 | 0.00 | 87 | 1013.9 |
| 20260906103510 | 78 | 127 | 0.9 | 4.3 | 0.00 | 0.00 | 0.00 | 86 | 1013.8 |
| 20260906103010 | 78 | 144 | 0.0 | 2.6 | 0.00 | 0.00 | 0.00 | 86 | 1013.7 |
| 20260906102509 | 78 | 151 | 0.9 | 2.6 | 0.00 | 0.00 | 0.00 | 86 | 1013.7 |
| 20260906102009 | 78 | 140 | 0.9 | 2.6 | 0.00 | 0.00 | 0.00 | 86 | 1013.7 |
| 20260906101509 | 78 | 148 | 0.9 | 0.9 | 0.00 | 0.00 | 0.00 | 86 | 1013.7 |
| 20260906101009 | 78 | 141 | 0.0 | 2.6 | 0.00 | 0.00 | 0.00 | 86 | 1013.6 |
| 20260906100509 | 78 | 141 | 0.0 | 2.6 | 0.00 | 0.00 | 0.00 | 85 | 1013.6 |
| 20260906100009 | 78 | 142 | 0.9 | 2.6 | 0.00 | 0.00 | 0.00 | 85 | 1013.6 |
| 20260906095508 | 78 | 156 | 0.0 | 1.7 | 0.00 | 0.00 | 0.00 | 85 | 1013.6 |
| 20260906095009 | 78 | 156 | 0.0 | 1.7 | 0.00 | 0.00 | 0.00 | 85 | 1013.6 |
| 20260906094508 | 78 | 156 | 0.9 | 0.9 | 0.00 | 0.00 | 0.00 | 85 | 1013.7 |
| 20260906093508 | 79 | 156 | 0.0 | 1.7 | 0.00 | 0.00 | 0.00 | 85 | 1013.7 |
| 20260906093009 | 79 | 156 | 0.0 | 1.7 | 0.00 | 0.00 | 0.00 | 84 | 1013.7 |
| 20260906092508 | 79 | 159 | 0.0 | 0.9 | 0.00 | 0.00 | 0.00 | 84 | 1013.7 |
| 20260906091510 | 79 | 159 | 0.9 | 0.9 | 0.00 | 0.00 | 0.00 | 83 | 1013.7 |
| 20260906090508 | 79 | 159 | 0.0 | 0.9 | 0.00 | 0.00 | 0.00 | 83 | 1013.7 |
| 20260906090009 | 79 | 159 | 0.0 | 2.6 | 0.00 | 0.00 | 0.00 | 83 | 1013.7 |
| 20260906085508 | 79 | 159 | 0.0 | 2.6 | 0.00 | 0.00 | 0.00 | 83 | 1013.7 |
| 20260906085009 | 80 | 159 | 0.0 | 2.6 | 0.00 | 0.00 | 0.00 | 83 | 1013.7 |
| 20260906084509 | 80 | 159 | 0.0 | 0.9 | 0.00 | 0.00 | 0.00 | 83 | 1013.6 |
| 20260906084009 | 80 | 159 | 0.0 | 1.7 | 0.00 | 0.00 | 0.00 | 83 | 1013.6 |
| 20260906083509 | 80 | 159 | 0.0 | 1.7 | 0.00 | 0.00 | 0.00 | 83 | 1013.5 |
| 20260906083009 | 80 | 159 | 0.9 | 1.7 | 0.00 | 0.00 | 0.00 | 83 | 1013.5 |
| 20260906082509 | 80 | 196 | 0.9 | 1.7 | 0.00 | 0.00 | 0.00 | 83 | 1013.5 |
| 20260906082009 | 80 | 159 | 0.0 | 2.6 | 0.00 | 0.00 | 0.00 | 83 | 1013.6 |
| 20260906081509 | 80 | 165 | 0.9 | 2.6 | 0.00 | 0.00 | 0.00 | 83 | 1013.6 |
| 20260906081010 | 80 | 142 | 0.9 | 2.6 | 0.00 | 0.00 | 0.00 | 83 | 1013.6 |
| 20260906080509 | 80 | 160 | 0.0 | 2.6 | 0.00 | 0.00 | 0.00 | 83 | 1013.6 |
| 20260906080010 | 80 | 158 | 0.9 | 4.3 | 0.00 | 0.00 | 0.00 | 83 | 1013.5 |
| 20260906075509 | 80 | 132 | 1.7 | 4.3 | 0.00 | 0.00 | 0.00 | 83 | 1013.3 |
| 20260906075009 | 81 | 146 | 0.9 | 2.6 | 0.00 | 0.00 | 0.00 | 83 | 1013.2 |
| 20260906074512 | 81 | 150 | 0.9 | 2.6 | 0.00 | 0.00 | 0.00 | 82 | 1013.2 |
| 20260906074010 | 81 | 144 | 0.9 | 2.6 | 0.00 | 0.00 | 0.00 | 82 | 1013.2 |
| 20260906073510 | 81 | 129 | 1.7 | 2.6 | 0.00 | 0.00 | 0.00 | 82 | 1013.2 |
| 20260906073010 | 81 | 146 | 1.7 | 5.2 | 0.00 | 0.00 | 0.00 | 82 | 1013.2 |
| 20260906072509 | 81 | 144 | 1.7 | 5.2 | 0.00 | 0.00 | 0.00 | 82 | 1013.3 |
| 20260906072009 | 81 | 123 | 1.7 | 5.2 | 0.00 | 0.00 | 0.00 | 82 | 1013.3 |
| 20260906071510 | 81 | 146 | 1.7 | 5.2 | 0.00 | 0.00 | 0.00 | 82 | 1013.4 |
| 20260906071010 | 81 | 138 | 0.9 | 2.6 | 0.00 | 0.00 | 0.00 | 82 | 1013.6 |
| 20260906070510 | 81 | 119 | 0.9 | 5.2 | 0.00 | 0.00 | 0.00 | 82 | 1013.6 |
| 20260906070010 | 81 | 140 | 1.7 | 5.2 | 0.00 | 0.00 | 0.00 | 82 | 1013.6 |
| 20260906065510 | 81 | 152 | 0.9 | 4.3 | 0.00 | 0.00 | 0.00 | 82 | 1013.6 |
| 20260906065010 | 81 | 105 | 1.7 | 5.2 | 0.00 | 0.00 | 0.00 | 82 | 1013.6 |
| 20260906063510 | 82 | 137 | 0.9 | 2.6 | 0.00 | 0.00 | 0.00 | 82 | 1013.6 |
| 20260906063010 | 82 | 162 | 1.7 | 2.6 | 0.00 | 0.00 | 0.00 | 81 | 1013.7 |
| 20260906062510 | 82 | 159 | 0.9 | 1.7 | 0.00 | 0.00 | 0.00 | 81 | 1013.7 |
| 20260906061509 | 82 | 148 | 0.9 | 4.3 | 0.00 | 0.00 | 0.00 | 81 | 1013.6 |
| 20260906061010 | 82 | 122 | 0.9 | 4.3 | 0.00 | 0.00 | 0.00 | 81 | 1013.7 |
| 20260906060510 | 82 | 152 | 1.7 | 4.3 | 0.00 | 0.00 | 0.00 | 81 | 1013.7 |
| 20260906060010 | 82 | 151 | 1.7 | 2.6 | 0.00 | 0.00 | 0.00 | 81 | 1013.6 |
| 20260906055510 | 82 | 136 | 0.9 | 2.6 | 0.00 | 0.00 | 0.00 | 81 | 1013.6 |
| 20260906055010 | 82 | 157 | 0.9 | 2.6 | 0.00 | 0.00 | 0.00 | 81 | 1013.6 |
| 20260906054510 | 82 | 120 | 0.9 | 5.2 | 0.00 | 0.00 | 0.00 | 81 | 1013.6 |
| 20260906054010 | 82 | 111 | 1.7 | 5.2 | 0.00 | 0.00 | 0.00 | 81 | 1013.6 |
| 20260906053509 | 82 | 155 | 0.9 | 4.3 | 0.00 | 0.00 | 0.00 | 81 | 1013.6 |
| 20260906052509 | 82 | 145 | 0.9 | 6.1 | 0.00 | 0.00 | 0.00 | 81 | 1013.6 |
| 20260906052009 | 82 | 125 | 1.7 | 6.1 | 0.00 | 0.00 | 0.00 | 81 | 1013.6 |
| 20260906051508 | 82 | 125 | 0.9 | 4.3 | 0.00 | 0.00 | 0.00 | 81 | 1013.6 |
| 20260906051009 | 82 | 130 | 0.9 | 2.6 | 0.00 | 0.00 | 0.00 | 81 | 1013.7 |
| 20260906050009 | 82 | 126 | 0.0 | 5.2 | 0.00 | 0.00 | 0.00 | 81 | 1013.8 |
| 20260906045511 | 82 | 126 | 0.0 | 5.2 | 0.00 | 0.00 | 0.00 | 81 | 1013.8 |
| 20260906045009 | 82 | 44 | 0.0 | 0.9 | 0.00 | 0.00 | 0.00 | 80 | 1013.8 |
| 20260906044509 | 82 | 44 | 0.0 | 0.9 | 0.00 | 0.00 | 0.00 | 80 | 1013.8 |
| 20260906044009 | 83 | 44 | 0.0 | 1.7 | 0.00 | 0.00 | 0.00 | 80 | 1013.8 |
| 20260906043509 | 83 | 42 | 0.0 | 1.7 | 0.00 | 0.00 | 0.00 | 80 | 1013.8 |
| 20260906043009 | 83 | 186 | 0.0 | 1.7 | 0.00 | 0.00 | 0.00 | 80 | 1013.8 |
| 20260906042508 | 83 | 189 | 0.0 | 0.9 | 0.00 | 0.00 | 0.00 | 80 | 1013.8 |
| 20260906042009 | 83 | 189 | 0.0 | 0.9 | 0.00 | 0.00 | 0.00 | 79 | 1013.9 |
| 20260906041509 | 83 | 230 | 0.0 | 0.9 | 0.00 | 0.00 | 0.00 | 79 | 1013.8 |
| 20260906040509 | 83 | 90 | 0.0 | 1.7 | 0.00 | 0.00 | 0.00 | 79 | 1013.8 |
| 20260906040009 | 83 | 91 | 0.0 | 1.7 | 0.00 | 0.00 | 0.00 | 79 | 1013.8 |
| 20260906035508 | 83 | 294 | 0.0 | 1.7 | 0.00 | 0.00 | 0.00 | 79 | 1013.7 |
| 20260906035009 | 84 | 273 | 0.0 | 0.9 | 0.00 | 0.00 | 0.00 | 78 | 1013.8 |
| 20260906034509 | 84 | 284 | 0.0 | 0.9 | 0.00 | 0.00 | 0.00 | 78 | 1013.7 |
| 20260906034009 | 84 | 286 | 0.0 | 1.7 | 0.00 | 0.00 | 0.00 | 78 | 1013.6 |
| 20260906033509 | 84 | 288 | 0.0 | 1.7 | 0.00 | 0.00 | 0.00 | 78 | 1013.6 |
| 20260906033010 | 84 | 289 | 0.0 | 1.7 | 0.00 | 0.00 | 0.00 | 77 | 1013.6 |
| 20260906032509 | 84 | 138 | 0.0 | 2.6 | 0.00 | 0.00 | 0.00 | 77 | 1013.6 |
| 20260906032009 | 84 | 139 | 0.0 | 2.6 | 0.00 | 0.00 | 0.00 | 77 | 1013.6 |
| 20260906030509 | 85 | 163 | 0.0 | 2.6 | 0.00 | 0.00 | 0.00 | 77 | 1013.1 |
| 20260906030009 | 85 | 74 | 0.9 | 2.6 | 0.00 | 0.00 | 0.00 | 77 | 1013.1 |
| 20260906025508 | 85 | 178 | 0.9 | 1.7 | 0.00 | 0.00 | 0.00 | 77 | 1013.1 |
| 20260906025009 | 85 | 182 | 0.0 | 1.7 | 0.00 | 0.00 | 0.00 | 77 | 1013.0 |
| 20260906024509 | 85 | 171 | 0.0 | 1.7 | 0.00 | 0.00 | 0.00 | 77 | 1012.9 |
| 20260906024009 | 85 | 71 | 0.0 | 2.6 | 0.00 | 0.00 | 0.00 | 76 | 1012.7 |
| 20260906023509 | 85 | 71 | 0.0 | 2.6 | 0.00 | 0.00 | 0.00 | 76 | 1012.7 |
| 20260906022510 | 86 | 175 | 0.9 | 2.6 | 0.00 | 0.00 | 0.00 | 76 | 1012.6 |
| 20260906022009 | 86 | 130 | 0.0 | 2.6 | 0.00 | 0.00 | 0.00 | 76 | 1012.6 |
| 20260906021510 | 86 | 126 | 0.9 | 2.6 | 0.00 | 0.00 | 0.00 | 75 | 1012.5 |
| 20260906020509 | 86 | 65 | 0.9 | 4.3 | 0.00 | 0.00 | 0.00 | 74 | 1012.4 |
| 20260906020009 | 87 | 71 | 1.7 | 4.3 | 0.00 | 0.00 | 0.00 | 74 | 1012.5 |
| 20260906015509 | 87 | 88 | 1.7 | 2.6 | 0.00 | 0.00 | 0.00 | 74 | 1012.2 |
| 20260906015009 | 87 | 77 | 0.9 | 2.6 | 0.00 | 0.00 | 0.00 | 73 | 1012.2 |
| 20260906014510 | 87 | 73 | 0.0 | 2.6 | 0.00 | 0.00 | 0.00 | 72 | 1012.2 |
| 20260906014010 | 88 | 74 | 0.9 | 2.6 | 0.00 | 0.00 | 0.00 | 72 | 1012.1 |
| 20260906013509 | 88 | 73 | 0.9 | 5.2 | 0.00 | 0.00 | 0.00 | 72 | 1012.1 |
| 20260906013010 | 88 | 178 | 0.0 | 5.2 | 0.00 | 0.00 | 0.00 | 71 | 1012.1 |
| 20260906012510 | 88 | 145 | 0.0 | 1.7 | 0.00 | 0.00 | 0.00 | 71 | 1012.0 |
| 20260906012010 | 88 | 72 | 0.9 | 2.6 | 0.00 | 0.00 | 0.00 | 70 | 1011.9 |
| 20260906011509 | 89 | 72 | 0.9 | 2.6 | 0.00 | 0.00 | 0.00 | 70 | 1012.0 |
| 20260906011010 | 89 | 67 | 0.9 | 2.6 | 0.00 | 0.00 | 0.00 | 69 | 1011.9 |
| 20260906010510 | 89 | 55 | 0.9 | 1.7 | 0.00 | 0.00 | 0.00 | 68 | 1011.8 |
| 20260906010010 | 89 | 138 | 0.0 | 1.7 | 0.00 | 0.00 | 0.00 | 68 | 1011.8 |
| 20260906005509 | 90 | 138 | 0.0 | 4.3 | 0.00 | 0.00 | 0.00 | 68 | 1011.7 |
| 20260906005010 | 90 | 137 | 1.7 | 4.3 | 0.00 | 0.00 | 0.00 | 68 | 1011.7 |
| 20260906004510 | 90 | 144 | 0.0 | 2.6 | 0.00 | 0.00 | 0.00 | 67 | 1011.7 |
| 20260906004010 | 90 | 112 | 0.9 | 2.6 | 0.00 | 0.00 | 0.00 | 67 | 1011.7 |
| 20260906003510 | 91 | 112 | 0.0 | 2.6 | 0.00 | 0.00 | 0.00 | 66 | 1011.7 |
| 20260906003010 | 91 | 130 | 0.9 | 2.6 | 0.00 | 0.00 | 0.00 | 66 | 1011.7 |
| 20260906001510 | 91 | 119 | 0.9 | 4.3 | 0.00 | 0.00 | 0.00 | 65 | 1011.5 |
| 20260906001009 | 91 | 130 | 1.7 | 2.6 | 0.00 | 0.00 | 0.00 | 65 | 1011.5 |
| 20260905235508 | 91 | 134 | 2.6 | 8.7 | 0.00 | 0.00 | 0.00 | 64 | 1011.5 |
| 20260905235009 | 91 | 35 | 2.6 | 8.7 | 0.00 | 0.00 | 0.00 | 64 | 1011.5 |
| 20260905234509 | 91 | 129 | 2.6 | 7.8 | 0.00 | 0.00 | 0.00 | 64 | 1011.5 |
| 20260905233509 | 91 | 143 | 2.6 | 7.8 | 0.00 | 0.00 | 0.00 | 64 | 1011.5 |
| 20260905233009 | 92 | 146 | 2.6 | 7.8 | 0.00 | 0.00 | 0.00 | 64 | 1011.4 |
| 20260905232509 | 92 | 129 | 0.9 | 6.1 | 0.00 | 0.00 | 0.00 | 64 | 1011.5 |
| 20260905232009 | 92 | 136 | 1.7 | 6.1 | 0.00 | 0.00 | 0.00 | 63 | 1011.5 |
| 20260905231509 | 92 | 162 | 1.7 | 5.2 | 0.00 | 0.00 | 0.00 | 62 | 1011.5 |
| 20260905231009 | 92 | 137 | 1.7 | 5.2 | 0.00 | 0.00 | 0.00 | 63 | 1011.5 |
| 20260905230509 | 92 | 109 | 2.6 | 5.2 | 0.00 | 0.00 | 0.00 | 62 | 1011.5 |
| 20260905225009 | 92 | 162 | 1.7 | 5.2 | 0.00 | 0.00 | 0.00 | 62 | 1011.4 |
| 20260905224509 | 92 | 120 | 1.7 | 5.2 | 0.00 | 0.00 | 0.00 | 62 | 1011.4 |
| 20260905224010 | 92 | 95 | 0.9 | 6.1 | 0.00 | 0.00 | 0.00 | 63 | 1011.3 |
| 20260905223509 | 92 | 102 | 0.9 | 7.8 | 0.00 | 0.00 | 0.00 | 62 | 1011.1 |
| 20260905223009 | 92 | 152 | 3.5 | 8.7 | 0.00 | 0.00 | 0.00 | 62 | 1011.0 |
| 20260905220510 | 92 | 115 | 1.7 | 11.3 | 0.00 | 0.00 | 0.00 | 62 | 1010.9 |
| 20260905220009 | 92 | 142 | 4.3 | 11.3 | 0.00 | 0.00 | 0.00 | 61 | 1010.9 |
| 20260905215510 | 92 | 185 | 3.5 | 10.4 | 0.00 | 0.00 | 0.00 | 61 | 1011.0 |
| 20260905215009 | 92 | 205 | 4.3 | 8.7 | 0.00 | 0.00 | 0.00 | 61 | 1011.0 |
| 20260905214510 | 92 | 156 | 3.5 | 10.4 | 0.00 | 0.00 | 0.00 | 60 | 1011.0 |
| 20260905213509 | 92 | 160 | 3.5 | 10.4 | 0.00 | 0.00 | 0.00 | 61 | 1011.3 |
| 20260905213010 | 92 | 141 | 2.6 | 8.7 | 0.00 | 0.00 | 0.00 | 61 | 1011.4 |
| 20260905212510 | 92 | 154 | 4.3 | 10.4 | 0.00 | 0.00 | 0.00 | 60 | 1011.4 |
| 20260905212010 | 92 | 170 | 1.7 | 11.3 | 0.00 | 0.00 | 0.00 | 61 | 1011.5 |
| 20260905211510 | 92 | 143 | 5.2 | 11.3 | 0.00 | 0.00 | 0.00 | 60 | 1011.5 |
| 20260905211010 | 91 | 173 | 1.7 | 10.4 | 0.00 | 0.00 | 0.00 | 60 | 1011.5 |
| 20260905210510 | 91 | 138 | 0.9 | 10.4 | 0.00 | 0.00 | 0.00 | 60 | 1011.7 |
| 20260905210010 | 91 | 152 | 4.3 | 10.4 | 0.00 | 0.00 | 0.00 | 60 | 1011.7 |
| 20260905205510 | 91 | 72 | 2.6 | 10.4 | 0.00 | 0.00 | 0.00 | 60 | 1012.0 |
| 20260905205010 | 91 | 142 | 1.7 | 10.4 | 0.00 | 0.00 | 0.00 | 61 | 1012.1 |
| 20260905204510 | 91 | 138 | 3.5 | 10.4 | 0.00 | 0.00 | 0.00 | 61 | 1012.2 |
| 20260905204010 | 91 | 76 | 2.6 | 7.8 | 0.00 | 0.00 | 0.00 | 60 | 1012.5 |
| 20260905203510 | 90 | 78 | 1.7 | 6.1 | 0.00 | 0.00 | 0.00 | 60 | 1012.7 |
| 20260905203010 | 91 | 113 | 2.6 | 8.7 | 0.00 | 0.00 | 0.00 | 60 | 1012.7 |
| 20260905202010 | 91 | 132 | 2.6 | 8.7 | 0.00 | 0.00 | 0.00 | 60 | 1012.9 |
| 20260905201010 | 90 | 136 | 1.7 | 8.7 | 0.00 | 0.00 | 0.00 | 59 | 1013.2 |
| 20260905200010 | 90 | 86 | 3.5 | 10.4 | 0.00 | 0.00 | 0.00 | 59 | 1013.5 |
| 20260905195510 | 90 | 123 | 2.6 | 8.7 | 0.00 | 0.00 | 0.00 | 60 | 1013.6 |
| 20260905195010 | 90 | 70 | 2.6 | 7.8 | 0.00 | 0.00 | 0.00 | 59 | 1013.7 |
| 20260905194510 | 90 | 213 | 2.6 | 8.7 | 0.00 | 0.00 | 0.00 | 59 | 1013.7 |
| 20260905194010 | 90 | 59 | 2.6 | 8.7 | 0.00 | 0.00 | 0.00 | 58 | 1013.7 |
| 20260905193510 | 90 | 11 | 4.3 | 8.7 | 0.00 | 0.00 | 0.00 | 57 | 1013.8 |
| 20260905193010 | 89 | 52 | 1.7 | 12.2 | 0.00 | 0.00 | 0.00 | 59 | 1013.8 |
| 20260905192509 | 89 | 96 | 2.6 | 12.2 | 0.00 | 0.00 | 0.00 | 59 | 1014.0 |
| 20260905192009 | 89 | 134 | 3.5 | 10.4 | 0.00 | 0.00 | 0.00 | 59 | 1014.1 |
| 20260905191509 | 89 | 132 | 1.7 | 8.7 | 0.00 | 0.00 | 0.00 | 60 | 1014.1 |
| 20260905190509 | 89 | 136 | 3.5 | 10.4 | 0.00 | 0.00 | 0.00 | 61 | 1014.3 |
| 20260905185509 | 89 | 93 | 1.7 | 10.4 | 0.00 | 0.00 | 0.00 | 62 | 1014.6 |
| 20260905185009 | 89 | 24 | 5.2 | 11.3 | 0.00 | 0.00 | 0.00 | 61 | 1014.7 |
| 20260905184509 | 89 | 38 | 4.3 | 11.3 | 0.00 | 0.00 | 0.00 | 63 | 1014.8 |
| 20260905184009 | 89 | 350 | 4.3 | 11.3 | 0.00 | 0.00 | 0.00 | 63 | 1014.9 |
| 20260905183509 | 89 | 53 | 3.5 | 11.3 | 0.00 | 0.00 | 0.00 | 64 | 1015.1 |
| 20260905183009 | 89 | 71 | 4.3 | 13.0 | 0.00 | 0.00 | 0.00 | 63 | 1015.2 |
| 20260905182009 | 88 | 265 | 4.3 | 10.4 | 0.00 | 0.00 | 0.00 | 64 | 1015.2 |
| 20260905181509 | 88 | 41 | 4.3 | 10.4 | 0.00 | 0.00 | 0.00 | 64 | 1015.2 |